This demonstration page uses our WeatherBlox Daily Observations layout. Learn more.

Left ArrowRight Arrow

44.31136, -96.79839

Hourly Observations for August 30, 2018

Temp ( °F °C ) Dew Point ( °F °C ) Humidity (%) Winds ( mph kmh ) Pressure ( in mb ) Visibility ( mi km ) Precip ( " mm )
12:56 am 00:56 Mostly Cloudy 60 15.6 55 12.8 84 84 SSE 10 17 30.14 1021 10 16 0.00 0.00
1:56 am 01:56 Partly Cloudy 60 15.6 55 12.8 84 84 SSE 13 20 30.14 1021 10 16 0.00 0.00
2:56 am 02:56 Clear 58 14.4 54 12.2 87 87 SSE 13 20 30.13 1020 10 16 0.00 0.00
3:56 am 03:56 Clear 58 14.4 54 12.2 87 87 S 14 22 30.13 1020 10 16 0.00 0.00
4:56 am 04:56 Clear 57 13.9 53 11.7 87 87 SSE 12 19 30.12 1020 10 16 0.00 0.00
5:56 am 05:56 Clear 55 12.8 53 11.7 93 93 SSE 12 19 30.11 1020 10 16 0.00 0.00
6:56 am 06:56 Mostly Sunny 56 13.3 54 12.2 93 93 SSE 15 24 30.10 1019 10 16 0.00 0.00
7:56 am 07:56 Sunny 57 13.9 54 12.2 90 90 SSE 15 24 30.09 1019 10 16 0.00 0.00
8:56 am 08:56 Sunny 61 16.1 55 12.8 81 81 SSE 16 26 30.07 1018 10 16 0.00 0.00
9:56 am 09:56 Sunny 64 17.8 56 13.3 75 75 S 20 31 30.05 1018 10 16 0.00 0.00
10:56 am 10:56 Sunny 67 19.4 58 14.4 73 73 SSE 20 31 30.04 1017 10 16 0.00 0.00
11:48 am 11:48 Mostly Cloudy 70 21 61 16 73 73 S 23 37 29.94 1014 10 16 0.00 0.00
11:56 am 11:56 Mostly Cloudy 69 20.6 60 15.6 73 73 SSE 21 33 30.02 1017 10 16 0.00 0.00
1:56 pm 13:56 Mostly Cloudy 72 22.2 62 16.7 71 71 SSE 22 35 29.97 1015 10 16 0.00 0.00
2:22 pm 14:22 Partly Cloudy 72 22 63 17 73 73 SSE 21 33 29.88 1012 10 16 0.00 0.00
2:56 pm 14:56 Sunny 74 23.3 62 16.7 67 67 SSE 17 28 29.95 1014 10 16 0.00 0.00
3:56 pm 15:56 Mostly Sunny 75 23.9 64 17.8 69 69 SSE 20 31 29.92 1013 10 16 0.00 0.00
4:56 pm 16:56 Mostly Cloudy 75 23.9 65 18.3 71 71 S 21 33 29.90 1013 10 16 0.00 0.00
5:35 pm 17:35 Cloudy 73 23 66 19 78 78 SSE 21 33 29.83 1010 10 16 0.00 0.00
5:56 pm 17:56 Cloudy 72 22.2 66 18.9 82 82 SSE 22 35 29.89 1012 10 16 0.00 0.00
6:56 pm 18:56 Cloudy 70 21.1 65 18.3 84 84 S 20 31 29.89 1012 10 16 0.00 0.00
7:25 pm 19:25 Cloudy 70 21 64 18 83 83 SSE 15 24 29.83 1010 10 16 0.00 0.00
7:32 pm 19:32 Cloudy 70 21 64 18 83 83 SSE 15 24 29.80 1009 10 16 0.00 0.00
7:56 pm 19:56 Cloudy 69 20.6 65 18.3 87 87 SSE 16 26 29.89 1012 10 16 0.00 0.00
8:11 pm 20:11 Cloudy 70 21 64 18 83 83 SSE 15 24 29.83 1010 10 16 0.00 0.00
8:56 pm 20:56 Cloudy 69 20.6 66 18.9 90 90 SSE 15 24 29.90 1012 10 16 0.00 0.00
9:56 pm 21:56 Cloudy 70 21.1 67 19.4 90 90 S 9 15 29.91 1013 9 14 0.00 0.00
10:56 pm 22:56 Cloudy 71 21.7 68 20 90 90 S 14 22 29.89 1012 9 14 0.00 0.00
11:56 pm 23:56 Cloudy 70 21.1 68 20 93 93 S 10 17 29.88 1012 7 11 0.00 0.00

Powered by AerisWeather